Regional Weather Roundup
Issued by NWS

Home | Current Version | Previous Version | Text Only | Print | Product List | Glossary On
Versions: 1 2 3 4 5 6 7 8 9 10 11 12 13 14 15 16 17 18 19 20 21 22 23 24 25 26 27 28 29 30 31 32 33 34 35 36 37 38 39 40 41 42 43 44 45 46 47 48 49 50
000
ASUS45 KSLC 301710
RWRUT

UTAH REGIONAL WEATHER ROUNDUP
NATIONAL WEATHER SERVICE SALT LAKE CITY UT
1100 AM MDT SAT MAY 30 2015

UTZ001>011-023>025-301800-

NORTHERN UTAH

CITY           SKY/WX    TMP DP  RH WIND       PRES   REMARKS
BRIGHAM CITY   SUNNY     68  45  43 CALM      30.13S
HILL AFB       MOSUNNY   70  41  34 E6        30.14S
LOGAN          SUNNY     64  50  60 N5        30.13F
OGDEN          MOSUNNY   72  45  37 VRB5      30.12S
PROVO AIRPORT  PTSUNNY   68  45  42 VRB5      30.16S
SALT LAKE CITY PTSUNNY   73  43  33 S16       30.11S
VERNAL         SUNNY     63  45  51 S5        30.25F
WENDOVER       MOSUNNY   70  46  43 E5        30.10F
HEBER CITY     PTSUNNY   64  41  42 CALM      30.21S
WEST JORDAN    SUNNY     72  45  37 S16       30.13F

$$

UTZ012>022-026-027-301800-

SOUTHERN/CENTRAL UTAH

CITY           SKY/WX    TMP DP  RH WIND       PRES   REMARKS
BLANDING       SUNNY     72  32  23 S6        30.34S
BRYCE CANYON   SUNNY     65  39  38 SE10      30.36S
CEDAR CITY     SUNNY     77  40  26 SW16G22   30.19F
DELTA          PTSUNNY   70  42  36 S5        30.15F
HANKSVILLE     PTSUNNY   72  37  28 S5        30.21F
MILFORD        MOSUNNY   75  42  30 S14       30.15F
MOAB/CYNLANDS  SUNNY     74  37  26 CALM      30.19F
PRICE          MOSUNNY   68  36  30 CALM      30.26S
ST GEORGE      PTSUNNY   81  43  26 NW3       30.08S

$$

REGIONAL REPORTS     COLORADO/ARIZONA

CITY           SKY/WX    TMP DP  RH WIND       PRES   REMARKS
CRAIG, CO      SUNNY     65  41  41 NE6       30.29F
GRAND JUNCTION SUNNY     69  40  34 SE12      30.22F
RIFLE          SUNNY     65  42  43 CALM      30.27F
MONTROSE       SUNNY     68  39  34 NE5       30.30S
CORTEZ         SUNNY     73  32  22 S5        30.27S
PAGE, AZ       SUNNY     77  42  28 NE5       30.18S
GRAND CANYON   SUNNY     74  32  21 VRB3      30.30S
KINGMAN        SUNNY     88  17   7 SE7       30.08S
FLAGSTAFF      SUNNY     70  30  22 S5        30.33S

$$

REGIONAL REPORTS    NEVADA/IDAHO/WYOMING

CITY           SKY/WX    TMP DP  RH WIND       PRES   REMARKS
LAS VEGAS, NV  MOSUNNY   89  23   9 S5        29.95S
ELY            SUNNY     75  30  19 S8        30.20S
ELKO           SUNNY     74  45  35 CALM      30.09F
POCATELLO, ID  SUNNY     74  42  31 CALM      30.08F
BURLEY         SUNNY     75  49  39 SE5       30.02F
EVANSTON, WY   MOSUNNY   64  40  41 SW8       30.27S
ROCK SPRINGS   SUNNY     60  43  53 VRB5      30.28S
KEMMERER       MOSUNNY   61  41  48 S6        30.29F

$$


USA.gov is the U.S. government's official web portal to all federal, state and local government web resources and services.